BM3FFG-1 Weather Reports


time (UTC)temp
C
wind
direction
speed
KPH
gust
KPH
rain 1hr
cm
rain 24hr
cm
rain mn
cm
humidity
%
barometer
mb
20260508070943 30 0.0 0.0 0.00 0.00 0.00 57 963.5
20260508064942 30 0.0 0.0 0.00 0.00 0.00 59 963.6
20260508062943 30 0.0 0.0 0.00 0.00 0.00 58 963.8
20260508060943 30 0.0 0.0 0.00 0.00 0.00 59 963.9
20260508054948 30 0.0 0.0 0.00 0.00 0.00 58 964.0
20260508052942 30 0.0 0.0 0.00 0.00 0.00 59 964.2
20260508050943 30 0.0 0.0 0.00 0.00 0.00 60 964.6
20260508044942 30 0.0 0.0 0.00 0.00 0.00 63 964.7
20260508042943 29 0.0 0.0 0.00 0.00 0.00 64 964.9
20260508040943 29 0.0 0.0 0.00 0.00 0.00 63 965.1
20260508034943 29 0.0 0.0 0.00 0.00 0.00 59 965.4
20260508032943 29 0.0 0.0 0.00 0.00 0.00 61 965.7
20260508030943 29 0.0 0.0 0.00 0.00 0.00 61 965.9
20260508024943 28 0.0 0.0 0.00 0.00 0.00 64 966.1
20260508022943 28 0.0 0.0 0.00 0.00 0.00 66 966.3
20260508020943 27 0.0 0.0 0.00 0.00 0.00 67 966.6
20260508014943 27 0.0 0.0 0.00 0.00 0.00 68 966.7
20260508012943 27 0.0 0.0 0.00 0.00 0.00 69 966.7
20260508010942 26 0.0 0.0 0.00 0.00 0.00 69 966.7
20260508004943 26 0.0 0.0 0.00 0.00 0.00 70 966.6
20260508002943 27 0.0 0.0 0.00 0.00 0.00 72 966.4
20260508000943 26 0.0 0.0 0.00 0.00 0.00 73 966.3
20260507234942 26 0.0 0.0 0.00 0.00 0.00 74 966.4
20260507232943 26 0.0 0.0 0.00 0.00 0.00 74 966.1
20260507230943 26 0.0 0.0 0.00 0.00 0.00 74 966.0
20260507224943 26 0.0 0.0 0.00 0.00 0.00 75 965.7
20260507222943 26 0.0 0.0 0.00 0.00 0.00 75 965.7
20260507220943 26 0.0 0.0 0.00 0.00 0.00 75 965.5
20260507214943 26 0.0 0.0 0.00 0.00 0.00 75 965.5
20260507212943 26 0.0 0.0 0.00 0.00 0.00 75 965.5
20260507210943 26 0.0 0.0 0.00 0.00 0.00 73 965.5
20260507204943 26 0.0 0.0 0.00 0.00 0.00 73 965.3
20260507202943 26 0.0 0.0 0.00 0.00 0.00 73 965.3
20260507200942 26 0.0 0.0 0.00 0.00 0.00 73 965.2
20260507194943 26 0.0 0.0 0.00 0.00 0.00 73 965.0
20260507192942 26 0.0 0.0 0.00 0.00 0.00 73 964.9
20260507190943 26 0.0 0.0 0.00 0.00 0.00 72 964.8
20260507184943 26 0.0 0.0 0.00 0.00 0.00 72 964.6
20260507182942 27 0.0 0.0 0.00 0.00 0.00 71 964.7
20260507180943 27 0.0 0.0 0.00 0.00 0.00 71 964.8
20260507174943 27 0.0 0.0 0.00 0.00 0.00 71 964.9
20260507172942 27 0.0 0.0 0.00 0.00 0.00 70 965.0
20260507170943 27 0.0 0.0 0.00 0.00 0.00 70 965.0
20260507164943 27 0.0 0.0 0.00 0.00 0.00 70 965.1
20260507162943 27 0.0 0.0 0.00 0.00 0.00 70 965.2
20260507160942 27 0.0 0.0 0.00 0.00 0.00 69 965.4
20260507154943 27 0.0 0.0 0.00 0.00 0.00 69 965.5
20260507152943 27 0.0 0.0 0.00 0.00 0.00 69 965.7
20260507150943 27 0.0 0.0 0.00 0.00 0.00 69 965.7
20260507144943 27 0.0 0.0 0.00 0.00 0.00 68 965.8
20260507142943 27 0.0 0.0 0.00 0.00 0.00 68 965.8
20260507140943 27 0.0 0.0 0.00 0.00 0.00 67 965.7
20260507134943 27 0.0 0.0 0.00 0.00 0.00 67 965.5
20260507132943 28 0.0 0.0 0.00 0.00 0.00 66 965.6
20260507130943 28 0.0 0.0 0.00 0.00 0.00 65 965.4
20260507124942 28 0.0 0.0 0.00 0.00 0.00 64 965.5
20260507122943 28 0.0 0.0 0.00 0.00 0.00 63 965.5
20260507120943 28 0.0 0.0 0.00 0.00 0.00 62 965.3
20260507114943 28 0.0 0.0 0.00 0.00 0.00 63 965.1
20260507112943 28 0.0 0.0 0.00 0.00 0.00 63 964.7
20260507110942 28 0.0 0.0 0.00 0.00 0.00 62 964.6
20260507104943 28 0.0 0.0 0.00 0.00 0.00 62 964.2
20260507102943 28 0.0 0.0 0.00 0.00 0.00 63 964.1
20260507100943 28 0.0 0.0 0.00 0.00 0.00 63 964.0
20260507094942 28 0.0 0.0 0.00 0.00 0.00 63 963.7
20260507092943 29 0.0 0.0 0.00 0.00 0.00 63 963.4
20260507090943 29 0.0 0.0 0.00 0.00 0.00 64 963.2
20260507084943 30 0.0 0.0 0.00 0.00 0.00 65 962.9
20260507082943 30 0.0 0.0 0.00 0.00 0.00 65 962.8
20260507080942 30 0.0 0.0 0.00 0.00 0.00 64 962.7
20260507074943 30 0.0 0.0 0.00 0.00 0.00 61 962.7
20260507072942 30 0.0 0.0 0.00 0.00 0.00 60 962.8